"Pseudo-MPEC" for P10MC3w

Created 2019 Apr 22 2:07:20 UT using Find_Orb

Click here for an explanation of pseudo-MPECs

 
 Astrometry: 
     P10MC3w  C2019 04 04rWa@A^YQ^%*iH`k*!DAstrometrywLNa?SkyGWwOPTjJOO)'3+,rF51
     P10MC3w  C2019 04 04NTXs94=6`EQYyBXFSVu]de.:n7A(w'K62EOe`bpt;l,;Ej)'/kA$F51
     P10MC3w  C2019 04 04(`YC`_YL^bMMgC;15HL5drEcf*E\j%Z*dmVHV])K?'@*phW+-M#RF51
     P10MC3w KC2019 04 06S@s7fU'ki1/]BW9%Yv*R#K]Nmn3Tuk-O1ZfwiHBY3Q/.U5BQsN/xJ04
     P10MC3w KC2019 04 07e]F3p/a-8sg$JWmj:D,I-;8)lf1Uw8ddces$L1Q:jKJoom!B4]boJ04
     P10MC3w KC2019 04 07r?Fd)redacted;0MH^RuI)im_n.c\$V49:vmcHf/3ps:1lm[P\NiJ04
     P10MC3w |C2019 04 09Plx9)TWa0kT$BHgD4PW^$rW5JJHay87Ej+(DjTbD3^FT([_`sc2P807
     P10MC3w |C2019 04 09RPU#yVk-U[8^Y/NgqLUsclickU].nw'W/2c`A@9]P^D,s]jRlr?=807
     P10MC3w |C2019 04 09D@rqhereO/%C-aTMqVn8I+B-ONfrXXjROirG:!W@D[R4.IkV;na^807
     P10MC3w |C2019 04 1362\#_o5)Gersf3tw-r;h$PPMu,iim'E]m\`R+P\,o.%[uSY(%NJ)807
     P10MC3w |C2019 04 13X0S`SwSZvkN2+Z=[IP%(f5y)nM-w`.forbmH;jVvAG$-R^KhUNrZ807
     P10MC3w |C2019 04 131^ZF]=;eKlK3T[Jc7F^^$kkbpYqEQQVjfV']KF.quLj1v-vka6,=807
     P10MC3w KC2019 04 13-e4,p@b``rBCDh,:'B*l?koo60pLg3[!?Qu'l[4Yxe:pF\9UE.K[291
     P10MC3w KC2019 04 13rub4buI=;mBFNv4aNkLhaM%@Za(_CZ_hvZ7:uk-r85HLwwq#?Y*D291
     P10MC3w KC2019 04 13uJY6R3,yrtuSexplanation1iN#PFofIu=FmteLY0!)C76aKv:Cq291
     P10MC3w |C2019 04 15jP\Y%9d%.*N*!Nwu:#T$$8Go(.@$#OmnfM%j-ht[Lu0#q$Z%(^q)807
     P10MC3w |C2019 04 15SSkN2nF;a:'hBaXO)S0UNt2yRlY4**=78/?J#ee?ZG-.?Qkr;!j2807
     P10MC3w |C2019 04 15TBXgWbrNSd]s4;^yZrgt.,%yYuy4eehaC0r_\G9F*2ZyJ3YC4Fqv807

Station data:
(291) LPL/Spacewatch II  (N31.961669 W111.599905)  US/Arizona.  Observers J.
   V. Scotti, R. S. McMillan. 1.8-m f/2.7 reflector + CCD.
(807) Cerro Tololo Observatory, La Serena  (S30.169136 W70.805900)  Chile.
(F51) Pan-STARRS 1, Haleakala  (N20.707235 W156.255910)  US/Hawaii.
   Observers N. Primak, A. Schultz, S. Watters, J. Thiel, T. Goggia. Measurer
   PS1 Science Consortium. 1.8-m Ritchey-Chrétien + CCD.
(J04) ESA Optical Ground Station, Tenerife  (N28.300924 W16.511830)  Canary
   Islands (Spain).  Observer D. Abreu. Measurers M. Micheli, D. Koschny, E.
   Schwab, M. Busch, A. Knöfel. 1.0-m f/4.4 reflector + CCD.

Orbital elements:  P10MC3w
   Perihelion 2018 Dec 3.784571 +/- 4.57 TT = 18:49:46 (JD 2458456.284571)
Epoch 2019 Apr 15.0 TT = JDT 2458588.5   Ne: 0.8023           AutoNEOCP
M   1.80624837 +/- 0.6              (J2000 ecliptic)
n   0.01366140 +/- 0.0035           Peri.  161.94260 +/- 1.2
a  17.3302899 +/- 2.96              Node    49.76978 +/- 0.10
e   0.8351912 +/- 0.0264            Incl.  156.82336 +/- 0.09
P  72.15                   H 17.2   G  0.15   U  8.9  
q 2.85618405 +/- 0.0186    Q 31.8043957 +/- 3.7
From 18 observations 2019 Apr. 4-15; mean residual 0".21
Residuals in arcseconds: 
190404 F51  .13+  .26+    190409 807  .08-  .00     190413 291  .36+  .40-    
190404 F51  .03+  .03+    190409 807  .10+  .24+    190413 291  .24+  .54+    
190404 F51  .02+  .20-    190409 807  .30-  .46-    190413 291  .25+  .08+    
190406 J04  .28+  .15-    190413 807  .06-  .08-    190415 807  .23-  .09+    
190407 J04  .23-  .16+    190413 807  .10-  .12-    190415 807  .25-  .01-    
190407 J04  .24-  .02+    190413 807  .01-  .00     190415 807  .05+  .02-    

Ephemerides (geocentric):
Date (UTC) HH   RA              Dec         delta   r     elong  mag " sig PA
---- -- -- --  -------------   -----------  ------ ------ -----  --- ---- ---
2019 04 22 02  13 51 02.591   -22 28 10.36  2.1379 3.1312 169.4 21.7 1.77  56
2019 04 22 03  13 50 54.309   -22 27 46.69  2.1380 3.1313 169.4 21.7 1.78  56
2019 04 22 04  13 50 46.029   -22 27 22.99  2.1381 3.1315 169.4 21.7 1.80  56
2019 04 22 05  13 50 37.752   -22 26 59.26  2.1382 3.1316 169.4 21.7 1.82  56
2019 04 22 06  13 50 29.476   -22 26 35.49  2.1384 3.1318 169.4 21.7 1.83  57
2019 04 22 07  13 50 21.201   -22 26 11.69  2.1385 3.1319 169.4 21.7 1.85  57
2019 04 22 08  13 50 12.929   -22 25 47.86  2.1386 3.1321 169.5 21.7 1.87  57
2019 04 22 09  13 50 04.659   -22 25 24.00  2.1387 3.1323 169.5 21.7 1.89  57
2019 04 22 10  13 49 56.390   -22 25 00.11  2.1389 3.1324 169.5 21.7 1.90  57
2019 04 22 11  13 49 48.123   -22 24 36.18  2.1390 3.1326 169.5 21.7 1.92  57
2019 04 22 12  13 49 39.859   -22 24 12.23  2.1391 3.1327 169.5 21.7 1.94  57
2019 04 22 13  13 49 31.596   -22 23 48.24  2.1392 3.1329 169.5 21.7 1.95  57
2019 04 22 14  13 49 23.335   -22 23 24.22  2.1394 3.1330 169.5 21.7 1.97  58
2019 04 22 15  13 49 15.076   -22 23 00.17  2.1395 3.1332 169.5 21.7 1.99  58
2019 04 22 16  13 49 06.819   -22 22 36.08  2.1396 3.1333 169.5 21.7 2.01  58
2019 04 22 17  13 48 58.564   -22 22 11.97  2.1398 3.1335 169.5 21.7 2.02  58
2019 04 22 18  13 48 50.311   -22 21 47.82  2.1399 3.1336 169.5 21.7 2.04  58
2019 04 22 19  13 48 42.059   -22 21 23.64  2.1401 3.1338 169.5 21.7 2.06  58
2019 04 22 20  13 48 33.810   -22 20 59.43  2.1402 3.1340 169.5 21.7 2.08  58
2019 04 22 21  13 48 25.563   -22 20 35.19  2.1403 3.1341 169.5 21.7 2.10  58
2019 04 22 22  13 48 17.318   -22 20 10.92  2.1405 3.1343 169.5 21.7 2.11  59
2019 04 22 23  13 48 09.075   -22 19 46.61  2.1406 3.1344 169.5 21.7 2.13  59
2019 04 23 00  13 48 00.834   -22 19 22.28  2.1408 3.1346 169.5 21.7 2.15  59
2019 04 23 01  13 47 52.595   -22 18 57.91  2.1409 3.1347 169.5 21.7 2.17  59
2019 04 23 02  13 47 44.359   -22 18 33.52  2.1410 3.1349 169.5 21.7 2.19  59
2019 04 23 03  13 47 36.124   -22 18 09.09  2.1412 3.1350 169.5 21.7 2.21  59
2019 04 23 04  13 47 27.891   -22 17 44.63  2.1413 3.1352 169.5 21.7 2.23  59
2019 04 23 05  13 47 19.661   -22 17 20.14  2.1415 3.1354 169.5 21.7 2.24  59
2019 04 23 06  13 47 11.433   -22 16 55.62  2.1416 3.1355 169.5 21.7 2.26  59
2019 04 23 07  13 47 03.207   -22 16 31.07  2.1418 3.1357 169.5 21.7 2.28  60
2019 04 23 08  13 46 54.983   -22 16 06.49  2.1419 3.1358 169.5 21.7 2.30  60
2019 04 23 09  13 46 46.761   -22 15 41.88  2.1421 3.1360 169.5 21.7 2.32  60
2019 04 23 10  13 46 38.541   -22 15 17.24  2.1423 3.1361 169.5 21.7 2.34  60
2019 04 23 11  13 46 30.324   -22 14 52.57  2.1424 3.1363 169.5 21.7 2.36  60
2019 04 23 12  13 46 22.109   -22 14 27.87  2.1426 3.1364 169.5 21.7 2.38  60
2019 04 23 13  13 46 13.896   -22 14 03.13  2.1427 3.1366 169.5 21.7 2.40  60
2019 04 23 14  13 46 05.685   -22 13 38.37  2.1429 3.1368 169.5 21.7 2.42  60
2019 04 23 15  13 45 57.477   -22 13 13.58  2.1430 3.1369 169.5 21.7 2.44  61
2019 04 23 16  13 45 49.270   -22 12 48.76  2.1432 3.1371 169.5 21.7 2.46  61
2019 04 23 17  13 45 41.066   -22 12 23.90  2.1434 3.1372 169.4 21.7 2.48  61
2019 04 23 18  13 45 32.865   -22 11 59.02  2.1435 3.1374 169.4 21.7 2.50  61
2019 04 23 19  13 45 24.666   -22 11 34.11  2.1437 3.1375 169.4 21.7 2.52  61
2019 04 23 20  13 45 16.469   -22 11 09.17  2.1439 3.1377 169.4 21.7 2.54  61
2019 04 23 21  13 45 08.274   -22 10 44.19  2.1440 3.1378 169.4 21.7 2.56  61
2019 04 23 22  13 45 00.082   -22 10 19.19  2.1442 3.1380 169.4 21.7 2.58  61
2019 04 23 23  13 44 51.892   -22 09 54.16  2.1444 3.1382 169.4 21.7 2.60  61
2019 04 24 00  13 44 43.704   -22 09 29.10  2.1445 3.1383 169.4 21.7 2.62  61
2019 04 24 01  13 44 35.519   -22 09 04.01  2.1447 3.1385 169.4 21.7 2.64  62